Location: Silent Lake
(44.9206°N, 78.0708°W)
Time: 07:44:03
(UTC-04:00)

Daily predictions for brighter satellites

Satellite Brightness Start Highest point End
(mag) Time Altitude Azimuth Time Altitude Azimuth Time Altitude Azimuth
COSMOS 2428 3.2 20:22:14 10° S 20:27:31 40° ESE 20:32:50 10° NE
SL-16 R/B 3.9 20:23:16 10° SW 20:28:34 40° NW 20:33:54 10° NNE
Spot 2 Rocket 4.3 20:25:36 10° SE 20:30:11 35° ENE 20:34:47 10° N
FREGAT/IRIS 4.2 20:28:25 10° S 20:31:12 38° W 20:34:00 10° NNW
NOSS 7 (D) 4.2 20:29:25 10° SSW 20:32:50 68° SE 20:36:00 10° NE
Cosmos 1844 Rocket 2.8 20:28:13 10° NNW 20:33:54 65° ENE 20:39:31 10° SE
Cosmos 1844 4.0 20:28:23 10° NNW 20:33:56 52° ENE 20:39:32 10° SE
NOSS 7 (E) 4.1 20:31:19 10° SW 20:34:26 86° NW 20:37:30 10° NE
Cosmos 2263 Rocket 4.2 20:30:40 10° NW 20:35:29 29° WSW 20:40:17 10° SSW
Cosmos 1455 3.3 20:36:10 10° SE 20:39:17 24° E 20:42:25 10° NE
Cosmos 1892 3.1 20:39:03 10° N 20:42:50 45° ENE 20:46:32 10° SSE
Cosmos 2237 Rocket 3.5 20:40:41 10° SE 20:44:29 19° E 20:48:17 10° ENE
Cosmos 2219 Rocket 2.7 20:40:03 10° S 20:45:14 38° ESE 20:50:26 10° NE
Cosmos 2074 Rocket 4.3 20:39:23 10° SSW 20:45:41 79° W 20:52:01 10° N
Cosmos 2322 Rocket 4.3 20:40:52 10° WSW 20:45:56 32° NW 20:51:01 10° N
ERS-2 2.3 20:42:17 10° S 20:45:57 79° WSW 20:49:38 10° NNW
Lacrosse 5 4.1 20:42:52 10° WNW 20:46:47 22° N 20:50:42 10° NE
BREEZE-M DEB (TANK) 2.7 20:41:33 10° WNW 20:47:21 77° NNE 20:49:38 12° ESE
Cosmos 1408 4.3 20:46:10 10° NNE 20:48:43 18° ENE 20:50:50 12° ESE
NOSS 2-1 (E) 3.4 20:46:30 10° SSW 20:49:59 47° ESE 20:53:54 10° NE
Cosmos 2278 Rocket 3.1 20:45:41 10° N 20:50:50 34° NE 20:55:31 12° ESE
Cosmos 1610 Rocket 4.4 20:45:56 10° S 20:52:03 80° E 20:58:15 10° N
ATLAS CENTAUR R/B 2.4 20:49:45 10° SSE 20:52:25 19° ESE 20:55:10 10° ENE
Timation 1 Rocket 4.3 20:49:27 10° NNW 20:55:28 80° ENE 21:01:26 10° SSE
Cosmos 1666 Rocket 3.6 20:52:19 10° N 20:56:50 76° E 21:01:17 10° SSE
Genesis I 4.1 20:54:04 10° NNW 20:57:56 38° NE 21:01:00 15° ESE
USA 186 1.4 20:57:04 10° S 20:59:16 57° W 21:01:31 10° NNW
NOAA 11 4.4 20:54:18 10° SSE 20:59:39 55° ENE 21:05:02 10° N
Resurs 1-3 3.6 20:55:38 10° SSE 21:00:00 82° ENE 21:04:26 10° NNW
H-2A R/B 3.4 20:58:29 12° ESE 21:01:45 22° ENE 21:05:33 10° NNE
NOSS 3-3 (A) 4.1 20:56:04 10° SSW 21:01:51 50° ESE 21:08:11 10° NE
NOSS 3-3 (C) 4.1 20:56:11 10° SSW 21:01:57 50° ESE 21:08:17 10° NE
Cosmos 1933 Rocket 4.4 20:58:49 10° N 21:02:47 32° ENE 21:05:47 15° SE
YAOGAN 6 3.0 21:03:34 10° S 21:07:07 65° W 21:10:46 10° NNW
Meteor 2-21 Rocket 4.4 21:01:44 10° S 21:07:48 71° E 21:13:57 10° NNE
USA 267 4.3 21:06:06 10° ENE 21:10:51 21° ESE 21:15:35 10° S
Sich 1 3.3 21:07:42 10° NNW 21:11:58 67° W 21:16:11 10° S
SAR-Lupe-3 4.5 21:08:59 10° NNE 21:12:34 66° ESE 21:16:08 10° S
Nadezhda 3 Rocket 4.1 21:06:49 10° N 21:13:09 83° W 21:19:29 10° S
ERS-1 Rocket 4.2 21:10:18 16° ESE 21:13:10 26° ENE 21:17:16 10° N
Cosmos 220 Rocket 4.0 21:11:42 10° NNW 21:16:03 65° ENE 21:19:12 18° SSE
Cosmos 1340 3.3 21:12:23 10° SSW 21:16:07 58° WNW 21:19:54 10° N
Cosmos 2251 Rocket 4.0 21:11:28 10° NNW 21:16:47 62° WSW 21:22:04 10° S
Cosmos 1151 Rocket 3.4 21:13:26 10° SSE 21:17:20 40° E 21:21:21 10° NNE
Cosmos 1939 Rocket 3.7 21:17:48 10° S 21:21:32 48° W 21:25:21 10° NNW
Cosmos 1825 2.6 21:23:10 10° N 21:26:48 42° ENE 21:28:24 27° SE
Meteor 2-3 Rocket 3.8 21:23:05 10° NNW 21:28:43 84° W 21:34:21 10° S
Cosmos 1633 Rocket 3.7 21:26:29 10° NNW 21:30:45 56° W 21:35:00 10° S
SL-16 R/B 3.5 21:33:18 19° E 21:33:18 19° E 21:36:57 10° NE
Cosmos 2098 Rocket 3.8 21:31:01 23° SE 21:33:04 34° E 21:36:42 10° NNE
Cosmos 2056 Rocket 4.5 21:32:53 23° SE 21:34:31 27° E 21:39:02 10° NE
Cosmos 1869 3.9 21:34:42 29° SE 21:36:01 38° E 21:39:46 10° NNE
Cosmos 2228 Rocket 3.0 21:32:15 10° S 21:36:36 70° E 21:41:00 10° NNE
Helios 1B rocket 4.5 21:36:54 10° NE 21:38:01 13° ENE 21:38:01 13° ENE
SL-8 R/B 4.2 21:35:42 10° SSW 21:40:02 35° SE 21:41:34 28° ESE
Cosmos 1515 Rocket 3.5 21:37:39 10° S 21:42:07 80° E 21:46:36 10° N
Cosmos 405 4.0 21:41:37 10° N 21:44:44 29° ENE 21:44:48 29° ENE
USA 234 4.4 21:40:40 10° E 21:46:31 36° NNE 21:52:23 10° NW
USA 245 4.3 21:48:11 19° NE 21:48:11 19° NE 21:49:20 10° NNE
ARGOS 3.1 21:44:34 25° SSE 21:47:46 71° ENE 21:53:07 10° N
GEOS 3 Rocket 4.0 21:44:30 10° NE 21:49:35 42° ESE 21:54:32 10° SSW
Helios 1A 3.7 21:49:42 32° E 21:50:34 35° ENE 21:54:25 10° N
BREEZE-M DEB (TANK) 1.6 21:47:45 10° WNW 21:51:00 89° SSW 21:51:01 88° SSE
Cosmos 1624 Rocket 4.4 21:50:09 31° SE 21:51:49 39° ESE 21:56:37 10° NE
Cosmos 1190 Rocket 4.5 21:49:25 10° N 21:54:33 46° ENE 21:56:23 33° ESE
SL-08 RB Rocket 3.7 21:52:57 36° SE 21:54:35 61° ENE 21:59:01 10° N
MetOp-B 4.1 21:51:53 28° SSE 21:54:43 72° ENE 22:00:04 10° N
OE (NEXTSAT) 4.3 21:53:07 10° WSW 21:56:41 89° NNW 21:57:33 49° ENE
Resurs 01 Rocket 3.6 21:54:27 10° SSW 21:58:11 26° W 22:01:56 10° NW
Cosmos 1980 3.6 21:54:17 10° SSW 21:59:57 81° ESE 22:05:40 10° NNE
Cosmos 2297 4.2 21:55:29 10° NNW 22:00:57 46° ENE 22:02:58 33° ESE
Cosmos 1727 Rocket 4.0 21:55:50 10° N 22:02:00 66° E 22:04:57 32° SSE
BREEZE-M DEB (TANK) 3.3 21:58:01 10° W 22:03:55 42° N 22:05:12 25° NE
Cosmos 1959 Rocket 4.4 22:00:08 11° S 22:06:12 89° E 22:12:22 10° N
Cosmos 2333 Rocket 2.7 22:00:42 10° SW 22:06:18 60° WNW 22:11:54 10° NNE
Cosmos 2369 Rocket 4.2 22:07:39 10° N 22:11:04 16° NE 22:13:27 13° ENE
COSMOS 2428 4.4 22:06:35 10° WSW 22:11:49 35° NW 22:17:03 10° NNE
Cosmos 1441 Rocket 4.4 22:13:59 29° NE 22:13:59 29° NE 22:16:16 10° NNE
ATLAS 2AS CENTAUR R/B 3.4 22:06:19 10° NW 22:13:57 54° WSW 22:18:17 25° S
Meteor 2-10 Rocket 3.7 22:11:14 28° S 22:14:25 74° E 22:20:14 10° NNE
Cosmos 1455 4.5 22:11:40 10° SW 22:14:51 24° WNW 22:18:04 10° NNW
DMSP B5D2-2 4.3 22:12:22 10° NNE 22:17:28 48° E 22:18:05 46° ESE
BREEZE M DEB (TANK) 4.4 21:57:54 10° WSW 22:18:12 80° NNW 22:22:59 12° ENE
Cosmos 1862 3.4 22:14:27 10° N 22:18:24 58° ENE 22:18:24 58° ENE
Cosmos 2218 Rocket 4.2 22:12:12 10° SSW 22:18:32 75° W 22:24:58 10° N
SL-08 R/B 4.5 22:15:09 19° S 22:19:54 89° W 22:26:23 10° N
Terra 2.7 22:21:54 32° ENE 22:22:08 32° ENE 22:26:21 10° N
Cosmos 1408 4.2 22:20:38 10° NNW 22:23:53 31° W 22:25:16 23° SW
Cosmos 2237 Rocket 2.5 22:22:21 10° SW 22:27:56 68° WNW 22:33:35 10° NNE
Cosmos 2219 Rocket 3.7 22:24:02 10° WSW 22:29:12 36° NW 22:34:24 10° NNE
ATLAS CENTAUR R/B 2.5 22:27:36 10° WSW 22:31:05 39° NW 22:34:45 10° NNE
Lacrosse 5 3.7 22:27:05 10° NW 22:31:14 24° NNE 22:34:13 15° ENE
SPOT 5 2.6 22:30:51 69° SE 22:31:19 78° ENE 22:35:49 10° N
USA 81 4.0 22:26:06 10° N 22:31:24 82° W 22:32:58 47° S
SPOT 1/Viking Rocket 3.5 22:31:21 57° SE 22:32:20 75° ENE 22:37:35 10° N
Cosmos 2366 rocket 4.3 22:27:19 13° SSW 22:32:54 65° W 22:39:10 10° N
Cosmos 2278 Rocket 3.1 22:29:41 10° NW 22:35:00 42° WSW 22:37:23 28° SSW
CZ-2C R/B 4.5 22:33:21 10° NE 22:35:16 16° ENE 22:35:16 16° ENE
CZ-4C R/B 4.4 22:41:45 12° ENE 22:41:45 12° ENE 22:42:13 10° ENE
Cosmos 405 Rocket 3.4 22:41:01 47° NNE 22:41:01 47° NNE 22:43:54 10° NNE
H-2A R/B 2.6 22:39:07 35° SSW 22:40:51 50° W 22:45:44 10° NNW
NOSS 3-4 (A) 3.8 22:37:23 10° NW 22:44:26 90° SW 22:46:43 49° SE
NOSS 3-4 (C) 3.8 22:37:29 10° NW 22:44:32 90° NE 22:46:49 49° SE
ATLAS 5 CENTAUR R/B 3.9 22:42:23 10° NNW 22:47:04 25° NE 22:49:39 20° ENE
Cosmos 407 Rocket 3.5 22:42:13 10° NNW 22:47:19 66° WSW 22:48:01 59° SSW
ERS-1 Rocket 3.8 22:50:18 35° SW 22:51:43 43° W 22:56:32 10° NNW
USA 267 3.1 22:47:59 10° NE 22:54:33 76° SE 23:01:05 10° SW
Cosmos 1707 Rocket 3.8 22:57:02 65° NNW 22:57:02 65° NNW 23:00:48 10° N
Cosmos 614 Rocket 3.8 22:51:30 10° NNW 22:56:46 80° ENE 22:56:51 80° E
Cosmos 1933 4.3 23:00:04 42° N 23:00:04 42° N 23:02:51 10° N
Cosmos 1869 Rocket 4.4 22:58:29 10° NNW 23:02:39 43° W 23:02:44 43° W
Cosmos 676 Rocket 3.9 22:59:44 10° NNW 23:05:00 75° WSW 23:05:05 75° WSW
SL-19 R/B 4.5 23:09:46 56° SW 23:10:29 60° WSW 23:16:01 10° NNW
Cosmos 2344 3.5 23:10:54 48° S 23:13:10 70° ESE 23:21:31 10° NE
CARTOSAT-1 4.2 23:14:51 53° NW 23:14:51 53° NW 23:18:16 10° NNW
Helios 1B rocket 3.4 23:10:53 10° N 23:14:23 47° NW 23:14:23 47° NW
Cosmos 1733 Rocket 3.9 23:11:46 10° N 23:14:56 46° N 23:14:56 46° N
SL-16 R/B 2.4 23:15:04 47° SW 23:16:36 67° WNW 23:22:15 10° NNE
Cosmos 1452 Rocket 3.8 23:18:16 61° NNE 23:18:16 61° NNE 23:22:37 10° NNE
Meteor 1-14 Rocket 4.2 23:16:59 10° N 23:22:05 68° NE 23:22:05 68° NE
Meteor 2-17 Rocket 4.4 23:26:29 70° ENE 23:26:29 70° ENE 23:32:18 10° NNE
USA 234 3.3 23:27:52 61° E 23:28:59 75° NE 23:35:32 10° NW
Cosmos 1934 Rocket 3.8 23:31:58 86° WSW 23:32:01 86° W 23:38:08 10° N
Cosmos 1943 Rocket 3.1 23:27:12 10° NNW 23:32:07 37° NE 23:32:07 37° NE
Cosmos 1850 Rocket 4.3 23:30:03 10° NNW 23:34:21 61° N 23:34:21 61° N
CZ-2C R/B 3.5 23:39:38 52° NNW 23:39:38 52° NNW 23:43:19 10° NNW
Cosmos 1741 Rocket 4.4 23:36:25 10° NNW 23:40:52 62° NNW 23:40:52 62° NNW
Cosmos 1603 4.4 23:44:59 44° NE 23:44:59 44° NE 23:48:50 10° NNE
RESURS DK-1 4.4 23:47:05 10° NNW 23:49:12 26° N 23:49:12 26° N
SeaSat 1 3.8 23:55:37 33° NE 23:55:37 33° NE 23:59:24 10° NNW
